contact:dominique.lefevre@mio.osupytheas.fr, maurice.libes@osupytheas.fr, didier.mallarino@osupytheas.fr
Project:EMSO http://www.emso-fr.org/EMSO-France
Depth: 2436.0 m
Title:EMSO Ligure Ouest : Data MII capteur AQUADOPP
Date,Latitude,Longitude,X_East,Y_North,Z_Up,Amplitude_X,Amplitude_Y,Amplitude_Z,Batterie,SoundSpeed,Heading,Pitch,Roll,Pressure,TIS,Speed,Direction
, degrees North, degrees East, m.s-1, m.s-1,m.s-1, 1, 1, 1, Volt, m.s-1, degree, degree, degree, dbar, degree_C, m.s-1, degree
2019-06-07T00:09:04,42.805,6.029,0.027,0.009,-0.054,99.0,105.0,97.0,13.4,1505.2,324.2,-0.8,1.8,2470.293,13.29,0.028,71.6
2019-06-07T00:12:06,42.805,6.029,0.0,0.017,-0.036,101.0,105.0,97.0,13.4,1505.2,327.9,-0.7,1.9,2470.278,13.3,0.017,0.0
2019-06-07T00:15:06,42.805,6.029,-0.003,0.023,-0.028,100.0,105.0,97.0,13.4,1505.3,326.4,-0.7,1.8,2470.285,13.31,0.023,352.6
2019-06-07T00:18:07,42.805,6.029,0.018,0.013,-0.052,100.0,107.0,96.0,13.4,1505.3,324.2,-0.7,1.9,2470.292,13.31,0.022,54.2
2019-06-07T00:21:08,42.805,6.029,0.064,0.009,0.003,100.0,105.0,96.0,13.4,1505.3,322.9,-0.7,1.9,2470.226,13.32,0.064,82.0
2019-06-07T00:24:09,42.805,6.029,0.03,0.009,-0.012,99.0,107.0,97.0,13.3,1505.3,326.1,-0.7,1.9,2470.213,13.32,0.031,73.3
2019-06-07T00:27:10,42.805,6.029,0.026,0.02,0.01,100.0,106.0,97.0,13.4,1505.3,328.0,-0.7,1.9,2470.242,13.32,0.032,52.4
2019-06-07T00:30:11,42.805,6.029,0.021,0.003,-0.027,100.0,106.0,97.0,13.3,1505.3,326.7,-0.8,1.9,2470.233,13.32,0.021,81.9
2019-06-07T00:33:12,42.805,6.029,0.023,0.0,-0.012,98.0,108.0,97.0,13.3,1505.3,326.7,-0.8,1.8,2470.23,13.32,0.023,90.0
2019-06-07T00:36:13,42.805,6.029,0.022,0.009,-0.011,99.0,107.0,95.0,13.3,1505.3,323.5,-0.7,1.9,2470.217,13.32,0.023,67.8
2019-06-07T00:39:14,42.805,6.029,0.025,0.013,-0.037,99.0,106.0,98.0,13.4,1505.3,325.9,-0.7,1.9,2470.211,13.32,0.028,62.5
2019-06-07T00:42:15,42.805,6.029,0.022,0.012,-0.002,98.0,107.0,99.0,13.4,1505.3,327.5,-0.7,1.8,2470.234,13.32,0.025,61.4
2019-06-07T00:45:16,42.805,6.029,0.034,0.024,-0.003,99.0,107.0,97.0,13.4,1505.3,323.0,-0.7,1.8,2470.231,13.32,0.041,54.8
2019-06-07T00:48:17,42.805,6.029,0.025,0.026,-0.011,100.0,107.0,98.0,13.3,1505.3,326.9,-0.7,1.8,2470.235,13.32,0.036,43.9
2019-06-07T00:51:18,42.805,6.029,0.016,0.011,0.013,101.0,105.0,97.0,13.3,1505.3,328.1,-0.8,1.8,2470.195,13.32,0.019,55.5
2019-06-07T00:54:19,42.805,6.029,0.037,0.018,0.003,100.0,105.0,97.0,13.4,1505.3,326.1,-0.7,1.9,2470.2,13.32,0.041,64.1
2019-06-07T00:57:20,42.805,6.029,0.041,-0.002,-0.009,101.0,108.0,96.0,13.3,1505.3,328.5,-0.8,1.9,2470.157,13.32,0.041,92.8
2019-06-07T01:00:21,42.805,6.029,0.062,-0.003,-0.011,101.0,107.0,97.0,13.3,1505.3,324.0,-0.7,1.9,2470.207,13.32,0.062,92.8
2019-06-07T01:03:22,42.805,6.029,0.041,0.008,-0.005,100.0,105.0,98.0,13.4,1505.3,326.3,-0.7,1.9,2470.169,13.32,0.041,79.0
2019-06-07T01:06:23,42.805,6.029,0.03,0.008,-0.03,101.0,107.0,98.0,13.4,1505.3,323.2,-0.8,1.9,2470.203,13.32,0.031,75.1
2019-06-07T01:09:24,42.805,6.029,-0.001,-0.008,-0.06,99.0,109.0,97.0,13.4,1505.3,326.9,-0.7,1.8,2470.206,13.32,0.008,187.1
2019-06-07T01:12:25,42.805,6.029,0.034,-0.015,-0.043,101.0,108.0,97.0,13.3,1505.3,324.1,-0.8,1.8,2470.2,13.32,0.037,113.8
2019-06-07T01:15:26,42.805,6.029,-0.004,0.021,-0.018,101.0,106.0,97.0,13.3,1505.3,325.9,-0.7,1.9,2470.128,13.32,0.021,349.2
2019-06-07T01:18:27,42.805,6.029,0.003,0.014,-0.04,100.0,107.0,97.0,13.3,1505.3,324.1,-0.8,1.9,2470.148,13.32,0.014,12.1
2019-06-07T01:21:28,42.805,6.029,0.03,0.006,-0.024,100.0,108.0,97.0,13.4,1505.3,326.1,-0.7,1.8,2470.229,13.32,0.03,78.7
2019-06-07T01:24:30,42.805,6.029,0.037,0.009,0.003,99.0,107.0,98.0,13.4,1505.3,326.6,-0.7,1.8,2470.171,13.32,0.038,76.3
2019-06-07T01:27:30,42.805,6.029,0.025,0.004,-0.01,100.0,107.0,98.0,13.4,1505.3,327.3,-0.7,1.9,2470.146,13.32,0.025,80.9
2019-06-07T01:30:31,42.805,6.029,0.036,-0.007,-0.016,100.0,107.0,97.0,13.4,1505.3,325.9,-0.8,1.8,2470.168,13.32,0.036,101.0
2019-06-07T01:33:32,42.805,6.029,0.013,0.007,-0.018,100.0,107.0,97.0,13.4,1505.3,324.7,-0.7,1.9,2470.198,13.32,0.014,61.7
2019-06-07T01:36:33,42.805,6.029,0.012,0.009,-0.054,99.0,108.0,97.0,13.4,1505.3,325.7,-0.8,1.9,2470.2,13.32,0.015,53.1
2019-06-07T01:39:34,42.805,6.029,-0.001,0.005,-0.035,101.0,113.0,96.0,13.3,1505.3,325.8,-0.7,1.8,2470.137,13.32,0.005,348.7
2019-06-07T01:42:35,42.805,6.029,0.015,0.011,-0.026,101.0,107.0,96.0,13.3,1505.3,326.7,-0.7,1.8,2470.163,13.32,0.018,53.7
2019-06-07T01:45:36,42.805,6.029,0.028,0.005,-0.047,99.0,108.0,98.0,13.4,1505.3,325.3,-0.7,1.9,2470.154,13.32,0.028,79.9
2019-06-07T01:48:37,42.805,6.029,0.042,-0.013,-0.033,101.0,108.0,97.0,13.3,1505.3,323.4,-0.7,1.9,2470.147,13.32,0.043,107.2
2019-06-07T01:51:39,42.805,6.029,0.012,0.019,-0.018,98.0,109.0,97.0,13.4,1505.3,324.9,-0.8,1.9,2470.155,13.32,0.022,32.3
2019-06-07T01:54:39,42.805,6.029,0.014,0.015,-0.034,102.0,105.0,97.0,13.4,1505.3,323.5,-0.8,1.9,2470.104,13.32,0.02,43.0
2019-06-07T01:57:40,42.805,6.029,0.023,0.012,-0.031,101.0,108.0,98.0,13.4,1505.3,325.7,-0.7,1.9,2470.109,13.32,0.025,62.4
2019-06-07T02:00:41,42.805,6.029,0.014,-0.003,-0.037,101.0,109.0,97.0,13.4,1505.3,327.9,-0.7,1.9,2470.126,13.32,0.014,102.1
2019-06-07T02:03:43,42.805,6.029,0.034,0.007,-0.029,102.0,107.0,96.0,13.3,1505.3,323.1,-0.8,1.8,2470.135,13.32,0.034,78.4
2019-06-07T02:06:43,42.805,6.029,0.033,0.009,-0.031,100.0,112.0,97.0,13.3,1505.3,324.9,-0.7,1.9,2470.172,13.32,0.034,74.7
2019-06-07T02:09:44,42.805,6.029,0.019,0.003,0.003,100.0,107.0,97.0,13.3,1505.3,324.5,-0.7,1.9,2470.123,13.32,0.019,81.0
2019-06-07T02:12:46,42.805,6.029,0.027,-0.018,-0.046,100.0,110.0,97.0,13.4,1505.3,324.8,-0.8,1.8,2470.146,13.32,0.032,123.7
2019-06-07T02:15:46,42.805,6.029,0.013,0.009,-0.04,101.0,107.0,97.0,13.4,1505.3,328.0,-0.7,1.9,2470.172,13.32,0.015,55.3
2019-06-07T02:18:47,42.805,6.029,0.047,0.006,0.018,100.0,106.0,99.0,13.3,1505.3,323.2,-0.7,1.9,2470.162,13.32,0.047,82.7
2019-06-07T02:21:48,42.805,6.029,0.033,-0.009,-0.061,101.0,107.0,96.0,13.3,1505.3,324.2,-0.7,1.8,2470.15,13.32,0.034,105.3
2019-06-07T02:24:49,42.805,6.029,0.059,0.014,-0.019,100.0,106.0,97.0,13.4,1505.3,327.0,-0.7,1.8,2470.136,13.32,0.06,76.7
2019-06-07T02:27:51,42.805,6.029,0.015,0.01,-0.015,100.0,105.0,98.0,13.4,1505.3,323.3,-0.8,1.8,2470.119,13.32,0.018,56.3
2019-06-07T02:30:52,42.805,6.029,0.034,-0.006,-0.002,101.0,107.0,97.0,13.3,1505.3,326.4,-0.7,1.9,2470.088,13.32,0.034,100.0
2019-06-07T02:33:53,42.805,6.029,0.035,-0.021,-0.031,100.0,107.0,97.0,13.4,1505.3,328.0,-0.8,1.9,2470.144,13.32,0.04,121.0
2019-06-07T02:36:53,42.805,6.029,0.027,-0.011,-0.031,101.0,117.0,97.0,13.3,1505.3,324.6,-0.8,1.9,2470.119,13.32,0.029,112.2
2019-06-07T02:39:55,42.805,6.029,0.036,0.0,-0.022,100.0,107.0,97.0,13.4,1505.3,324.2,-0.7,1.8,2470.126,13.32,0.036,90.0
2019-06-07T02:42:56,42.805,6.029,0.047,0.002,-0.022,101.0,105.0,97.0,13.3,1505.3,325.7,-0.7,1.8,2470.194,13.32,0.047,87.6
2019-06-07T02:45:57,42.805,6.029,0.05,0.009,-0.002,100.0,106.0,98.0,13.4,1505.3,325.9,-0.7,1.8,2470.116,13.32,0.05,79.8
2019-06-07T02:48:58,42.805,6.029,0.026,0.0,-0.009,100.0,105.0,98.0,13.4,1505.3,325.0,-0.7,1.8,2470.103,13.32,0.026,90.0
2019-06-07T02:51:59,42.805,6.029,0.013,0.013,-0.031,100.0,107.0,98.0,13.4,1505.3,324.5,-0.7,1.9,2470.152,13.32,0.018,45.0
2019-06-07T02:55:00,42.805,6.029,0.042,-0.008,0.011,100.0,106.0,96.0,13.4,1505.3,326.3,-0.7,1.8,2470.132,13.32,0.042,100.8
2019-06-07T02:58:01,42.805,6.029,0.034,0.003,-0.014,100.0,107.0,98.0,13.4,1505.3,328.2,-0.8,1.8,2470.104,13.32,0.034,85.0
2019-06-07T03:01:02,42.805,6.029,0.028,-0.002,-0.012,100.0,107.0,97.0,13.3,1505.3,326.5,-0.7,1.9,2470.153,13.32,0.028,94.1
2019-06-07T03:04:03,42.805,6.029,0.046,0.0,0.005,101.0,106.0,97.0,13.4,1505.3,326.9,-0.8,1.8,2470.09,13.32,0.046,90.0
2019-06-07T03:07:04,42.805,6.029,0.04,0.004,-0.037,100.0,106.0,96.0,13.3,1505.3,323.4,-0.7,1.8,2470.073,13.32,0.04,84.3
2019-06-07T03:10:05,42.805,6.029,0.036,0.0,-0.028,99.0,108.0,97.0,13.3,1505.3,326.8,-0.8,1.8,2470.13,13.32,0.036,90.0
2019-06-07T03:13:06,42.805,6.029,0.028,-0.01,0.004,100.0,106.0,97.0,13.3,1505.3,327.1,-0.7,1.8,2470.123,13.32,0.029,109.6
2019-06-07T03:16:07,42.805,6.029,0.022,0.004,-0.012,101.0,106.0,98.0,13.4,1505.3,326.6,-0.7,1.8,2470.111,13.32,0.022,79.7
2019-06-07T03:19:08,42.805,6.029,0.044,0.003,0.006,102.0,103.0,98.0,13.4,1505.3,325.5,-0.7,1.8,2470.062,13.32,0.044,86.1
2019-06-07T03:22:09,42.805,6.029,0.042,-0.016,-0.011,101.0,108.0,98.0,13.3,1505.3,325.3,-0.8,1.9,2470.114,13.32,0.044,110.9
2019-06-07T03:25:10,42.805,6.029,0.047,-0.004,-0.013,102.0,105.0,98.0,13.4,1505.3,326.6,-0.8,1.9,2470.097,13.32,0.047,94.9
2019-06-07T03:28:11,42.805,6.029,0.024,-0.007,-0.016,101.0,106.0,98.0,13.3,1505.3,326.9,-0.8,1.9,2470.103,13.32,0.025,106.3
2019-06-07T03:31:12,42.805,6.029,0.042,-0.008,-0.022,101.0,106.0,97.0,13.3,1505.3,327.1,-0.7,1.9,2470.093,13.32,0.042,100.8
2019-06-07T03:34:13,42.805,6.029,0.014,-0.003,-0.002,100.0,105.0,98.0,13.4,1505.3,326.8,-0.7,1.9,2470.082,13.32,0.014,102.1
2019-06-07T03:37:14,42.805,6.029,0.027,0.006,0.005,101.0,106.0,96.0,13.4,1505.3,323.8,-0.7,1.9,2470.037,13.32,0.027,77.5
2019-06-07T03:40:15,42.805,6.029,0.046,0.008,-0.016,100.0,105.0,98.0,13.4,1505.3,326.5,-0.7,1.9,2470.085,13.32,0.046,80.1
2019-06-07T03:43:16,42.805,6.029,0.032,-0.016,-0.021,100.0,106.0,97.0,13.4,1505.3,327.3,-0.8,1.8,2470.086,13.32,0.035,116.6
2019-06-07T03:46:17,42.805,6.029,0.022,0.0,-0.043,103.0,103.0,98.0,13.4,1505.3,325.9,-0.7,1.9,2470.073,13.32,0.022,90.0
2019-06-07T03:49:18,42.805,6.029,0.023,-0.016,-0.029,99.0,108.0,97.0,13.4,1505.3,324.4,-0.7,1.8,2470.084,13.32,0.028,124.8
2019-06-07T03:52:19,42.805,6.029,0.021,-0.003,-0.013,100.0,107.0,97.0,13.4,1505.3,324.7,-0.7,1.9,2470.086,13.32,0.021,98.1
2019-06-07T03:55:20,42.805,6.029,0.039,0.009,-0.015,99.0,104.0,97.0,13.4,1505.3,325.2,-0.7,1.8,2470.054,13.32,0.04,77.0
2019-06-07T03:58:21,42.805,6.029,0.022,0.003,-0.016,100.0,107.0,98.0,13.4,1505.3,328.2,-0.7,1.8,2470.101,13.32,0.022,82.2
2019-06-07T04:01:22,42.805,6.029,0.045,-0.011,-0.026,102.0,105.0,97.0,13.3,1505.3,326.5,-0.7,1.9,2470.052,13.32,0.046,103.7
2019-06-07T04:04:23,42.805,6.029,0.014,0.004,-0.013,101.0,107.0,97.0,13.4,1505.3,327.1,-0.7,1.8,2470.084,13.32,0.014,74.1
2019-06-07T04:07:24,42.805,6.029,0.038,0.008,-0.001,99.0,110.0,99.0,13.4,1505.3,325.2,-0.7,1.9,2470.025,13.32,0.038,78.1
2019-06-07T04:10:25,42.805,6.029,0.033,0.001,-0.052,99.0,106.0,97.0,13.3,1505.3,327.4,-0.8,1.8,2470.077,13.32,0.033,88.3
2019-06-07T04:13:26,42.805,6.029,0.038,-0.006,-0.044,100.0,106.0,96.0,13.3,1505.3,325.6,-0.8,1.9,2470.076,13.32,0.038,99.0
2019-06-07T04:16:27,42.805,6.029,0.025,0.013,-0.043,101.0,106.0,96.0,13.4,1505.3,325.1,-0.7,1.9,2470.092,13.32,0.028,62.5
2019-06-07T04:19:28,42.805,6.029,0.045,-0.004,0.018,100.0,107.0,97.0,13.3,1505.3,324.8,-0.7,1.9,2470.048,13.32,0.045,95.1
2019-06-07T04:22:29,42.805,6.029,0.035,0.002,0.004,100.0,107.0,96.0,13.4,1505.3,322.9,-0.8,1.8,2470.07,13.32,0.035,86.7
2019-06-07T04:25:30,42.805,6.029,0.045,0.0,-0.013,100.0,109.0,97.0,13.4,1505.3,327.3,-0.8,1.8,2470.072,13.32,0.045,90.0
2019-06-07T04:28:31,42.805,6.029,0.041,0.0,-0.024,100.0,108.0,96.0,13.4,1505.3,326.6,-0.7,1.9,2470.03,13.32,0.041,90.0
2019-06-07T04:31:32,42.805,6.029,0.028,0.015,-0.073,100.0,107.0,97.0,13.4,1505.3,327.8,-0.7,1.8,2470.075,13.32,0.031,61.8
2019-06-07T04:34:33,42.805,6.029,0.045,0.0,-0.035,102.0,104.0,96.0,13.4,1505.3,323.3,-0.7,1.8,2470.033,13.32,0.045,90.0
2019-06-07T04:37:34,42.805,6.029,0.069,0.017,-0.036,99.0,108.0,96.0,13.3,1505.3,327.4,-0.7,1.9,2470.082,13.32,0.071,76.2
2019-06-07T04:40:35,42.805,6.029,0.042,0.01,0.003,99.0,107.0,96.0,13.3,1505.3,326.9,-0.8,1.9,2470.064,13.32,0.043,76.6
2019-06-07T04:43:36,42.805,6.029,0.045,0.0,-0.022,102.0,103.0,96.0,13.3,1505.3,327.7,-0.8,1.8,2470.033,13.32,0.045,90.0
2019-06-07T04:46:37,42.805,6.029,0.034,0.018,-0.03,100.0,106.0,97.0,13.4,1505.3,324.2,-0.8,1.9,2470.105,13.32,0.038,62.1
2019-06-07T04:49:38,42.805,6.029,0.055,0.014,-0.045,100.0,105.0,97.0,13.3,1505.3,326.6,-0.7,1.9,2470.041,13.32,0.056,75.7
2019-06-07T04:52:39,42.805,6.029,0.051,0.012,-0.046,100.0,104.0,97.0,13.3,1505.3,322.8,-0.7,1.8,2470.075,13.32,0.052,76.8
2019-06-07T04:55:40,42.805,6.029,0.055,0.004,-0.014,99.0,106.0,97.0,13.4,1505.3,324.8,-0.8,1.9,2470.084,13.32,0.055,85.8
2019-06-07T04:58:41,42.805,6.029,0.05,0.016,-0.008,101.0,109.0,97.0,13.4,1505.3,323.4,-0.7,1.9,2470.061,13.32,0.052,72.3
2019-06-07T05:01:42,42.805,6.029,0.023,-0.013,-0.043,102.0,107.0,97.0,13.4,1505.3,324.8,-0.8,1.9,2470.025,13.32,0.026,119.5
2019-06-07T05:04:43,42.805,6.029,0.068,0.023,-0.037,100.0,105.0,96.0,13.3,1505.3,326.3,-0.7,1.9,2470.063,13.32,0.071,71.3
2019-06-07T05:07:44,42.805,6.029,0.039,0.014,-0.011,100.0,107.0,96.0,13.4,1505.3,326.8,-0.8,1.8,2470.075,13.32,0.041,70.3
2019-06-07T05:10:45,42.805,6.029,0.036,-0.001,-0.026,100.0,107.0,97.0,13.3,1505.3,326.5,-0.7,1.9,2470.023,13.32,0.036,91.6
2019-06-07T05:13:46,42.805,6.029,0.036,0.018,-0.043,101.0,107.0,97.0,13.3,1505.3,326.2,-0.8,1.8,2470.054,13.32,0.04,63.4
2019-06-07T05:16:47,42.805,6.029,0.044,0.007,-0.05,101.0,105.0,97.0,13.4,1505.3,327.6,-0.8,1.9,2470.043,13.32,0.044,81.0
2019-06-07T05:19:48,42.805,6.029,0.025,-0.002,-0.004,100.0,106.0,98.0,13.4,1505.3,326.9,-0.7,1.8,2470.031,13.32,0.025,94.6
2019-06-07T05:22:49,42.805,6.029,0.021,0.01,-0.025,99.0,109.0,97.0,13.3,1505.3,327.7,-0.7,1.9,2470.067,13.32,0.023,64.5
2019-06-07T05:25:50,42.805,6.029,0.035,0.022,-0.005,100.0,106.0,97.0,13.3,1505.3,325.2,-0.8,1.9,2470.034,13.32,0.041,57.8
2019-06-07T05:28:51,42.805,6.029,0.019,0.007,-0.022,100.0,106.0,97.0,13.4,1505.3,323.5,-0.8,1.8,2470.074,13.32,0.02,69.8
2019-06-07T05:31:52,42.805,6.029,0.063,-0.004,-0.054,99.0,107.0,97.0,13.4,1505.3,325.7,-0.7,1.8,2470.032,13.32,0.063,93.6
2019-06-07T05:34:53,42.805,6.029,0.039,0.007,-0.002,99.0,109.0,96.0,13.4,1505.3,326.3,-0.8,1.8,2470.122,13.32,0.039,79.8
2019-06-07T05:37:54,42.805,6.029,0.056,0.01,-0.029,100.0,107.0,96.0,13.4,1505.3,325.5,-0.7,1.8,2470.09,13.32,0.056,79.9
2019-06-07T05:40:55,42.805,6.029,0.034,0.006,-0.008,100.0,105.0,96.0,13.4,1505.3,326.3,-0.7,1.9,2470.056,13.32,0.034,80.0
2019-06-07T05:43:56,42.805,6.029,0.046,0.0,-0.07,100.0,107.0,96.0,13.4,1505.3,327.2,-0.7,1.8,2470.042,13.32,0.046,90.0
2019-06-07T05:46:57,42.805,6.029,0.036,0.011,0.01,100.0,106.0,96.0,13.4,1505.3,325.3,-0.7,1.8,2470.086,13.32,0.037,73.0
2019-06-07T05:49:58,42.805,6.029,0.035,0.01,-0.043,99.0,108.0,98.0,13.4,1505.3,323.1,-0.7,1.8,2470.068,13.32,0.036,74.1
2019-06-07T05:52:59,42.805,6.029,0.052,0.015,-0.054,101.0,108.0,97.0,13.4,1505.3,324.4,-0.7,1.8,2470.096,13.32,0.054,73.9
2019-06-07T05:56:00,42.805,6.029,0.027,-0.014,-0.036,101.0,106.0,97.0,13.4,1505.3,324.3,-0.8,1.8,2470.067,13.32,0.03,117.4
2019-06-07T05:59:01,42.805,6.029,0.015,0.007,-0.055,99.0,110.0,97.0,13.4,1505.3,324.5,-0.8,1.8,2470.05,13.32,0.016,65.0
2019-06-07T06:02:02,42.805,6.029,0.054,0.007,-0.047,100.0,106.0,96.0,13.4,1505.3,323.4,-0.7,1.9,2470.03,13.32,0.054,82.6
2019-06-07T06:05:03,42.805,6.029,0.064,0.018,-0.01,101.0,105.0,96.0,13.4,1505.3,324.4,-0.7,1.8,2470.03,13.32,0.066,74.3
2019-06-07T06:08:04,42.805,6.029,0.064,0.009,-0.023,100.0,105.0,96.0,13.4,1505.3,324.6,-0.8,1.8,2470.079,13.32,0.064,82.0
2019-06-07T06:11:05,42.805,6.029,0.04,0.003,0.0,99.0,103.0,98.0,13.4,1505.3,324.0,-0.8,1.9,2470.052,13.32,0.04,85.7
2019-06-07T06:14:06,42.805,6.029,0.056,-0.008,-0.054,100.0,106.0,98.0,13.3,1505.3,323.4,-0.8,1.9,2470.045,13.32,0.056,98.1
2019-06-07T06:17:07,42.805,6.029,0.055,-0.005,-0.026,100.0,104.0,96.0,13.4,1505.3,325.5,-0.8,1.8,2470.042,13.32,0.055,95.2
2019-06-07T06:20:08,42.805,6.029,0.037,0.002,-0.061,100.0,105.0,96.0,13.4,1505.3,322.8,-0.8,1.8,2470.094,13.32,0.037,86.9
2019-06-07T06:23:09,42.805,6.029,0.03,0.01,-0.011,99.0,103.0,97.0,13.3,1505.3,324.7,-0.8,1.8,2470.084,13.32,0.031,71.6
2019-06-07T06:26:10,42.805,6.029,0.035,-0.008,-0.013,98.0,103.0,97.0,13.4,1505.3,323.5,-0.7,1.8,2470.099,13.32,0.035,102.9
2019-06-07T06:29:11,42.805,6.029,0.054,0.016,-0.036,100.0,103.0,96.0,13.3,1505.3,324.6,-0.7,1.8,2470.09,13.32,0.056,73.5
2019-06-07T06:32:12,42.805,6.029,0.049,-0.015,-0.036,98.0,103.0,96.0,13.3,1505.3,325.7,-0.7,1.8,2470.094,13.32,0.051,107.0
2019-06-07T06:35:13,42.805,6.029,0.051,0.012,-0.015,98.0,103.0,97.0,13.4,1505.3,325.0,-0.7,1.9,2470.104,13.32,0.052,76.8
2019-06-07T06:38:14,42.805,6.029,0.031,0.012,-0.003,100.0,103.0,95.0,13.4,1505.3,326.9,-0.7,1.8,2470.122,13.32,0.033,68.8
2019-06-07T06:41:15,42.805,6.029,0.041,0.01,-0.015,101.0,105.0,96.0,13.4,1505.3,326.7,-0.7,1.8,2470.105,13.32,0.042,76.3
2019-06-07T06:44:16,42.805,6.029,0.045,0.031,-0.019,100.0,105.0,96.0,13.4,1505.3,325.9,-0.7,1.9,2470.142,13.32,0.054,55.4
2019-06-07T06:47:17,42.805,6.029,0.04,0.006,-0.034,98.0,106.0,96.0,13.4,1505.3,323.2,-0.7,1.9,2470.107,13.32,0.04,81.5
2019-06-07T06:50:18,42.805,6.029,0.05,0.022,0.008,100.0,107.0,95.0,13.4,1505.3,323.9,-0.7,1.9,2470.086,13.32,0.054,66.3
2019-06-07T06:53:19,42.805,6.029,0.034,0.014,-0.045,98.0,107.0,97.0,13.3,1505.3,325.2,-0.8,1.8,2470.08,13.32,0.036,67.6
2019-06-07T06:56:20,42.805,6.029,0.046,0.017,-0.034,99.0,105.0,95.0,13.4,1505.3,326.4,-0.7,1.9,2470.118,13.32,0.049,69.7
2019-06-07T06:59:21,42.805,6.029,0.029,0.026,-0.021,98.0,105.0,96.0,13.4,1505.3,325.8,-0.8,1.9,2470.105,13.32,0.038,48.1
2019-06-07T07:02:22,42.805,6.029,0.052,0.002,-0.068,98.0,105.0,96.0,13.4,1505.3,327.4,-0.7,1.8,2470.11,13.32,0.052,87.8
2019-06-07T07:05:23,42.805,6.029,0.053,0.007,-0.008,98.0,105.0,96.0,13.4,1505.3,324.6,-0.8,1.9,2470.116,13.32,0.053,82.5
2019-06-07T07:08:24,42.805,6.029,0.054,0.002,-0.053,99.0,105.0,96.0,13.4,1505.3,326.0,-0.8,1.9,2470.096,13.32,0.054,87.9
2019-06-07T07:11:25,42.805,6.029,0.058,0.011,0.006,98.0,105.0,96.0,13.3,1505.3,327.6,-0.7,1.9,2470.103,13.32,0.059,79.3
2019-06-07T07:14:26,42.805,6.029,0.044,-0.005,-0.025,98.0,105.0,96.0,13.4,1505.3,326.1,-0.8,1.8,2470.082,13.32,0.044,96.5
2019-06-07T07:17:27,42.805,6.029,0.061,0.005,-0.011,99.0,106.0,97.0,13.4,1505.3,327.4,-0.8,1.8,2470.109,13.32,0.061,85.3
2019-06-07T07:20:28,42.805,6.029,0.04,-0.005,-0.064,98.0,108.0,97.0,13.3,1505.3,326.6,-0.7,1.9,2470.118,13.32,0.04,97.1
2019-06-07T07:23:29,42.805,6.029,0.052,0.002,-0.043,99.0,104.0,96.0,13.4,1505.3,327.3,-0.7,1.8,2470.11,13.32,0.052,87.8
2019-06-07T07:26:30,42.805,6.029,0.047,0.014,-0.027,99.0,103.0,97.0,13.4,1505.3,326.1,-0.8,1.9,2470.097,13.32,0.049,73.4
2019-06-07T07:29:31,42.805,6.029,0.043,-0.008,-0.024,101.0,104.0,97.0,13.4,1505.3,328.0,-0.7,1.9,2470.14,13.32,0.043,100.5
2019-06-07T07:32:32,42.805,6.029,0.053,0.005,-0.054,99.0,105.0,96.0,13.4,1505.3,324.5,-0.7,1.9,2470.134,13.32,0.053,84.6
2019-06-07T07:35:33,42.805,6.029,0.048,0.012,-0.013,101.0,103.0,96.0,13.4,1505.3,324.3,-0.8,1.8,2470.108,13.32,0.049,76.0
2019-06-07T07:38:34,42.805,6.029,0.05,0.007,-0.044,100.0,102.0,96.0,13.4,1505.3,328.1,-0.7,1.9,2470.167,13.32,0.05,82.0
2019-06-07T07:41:35,42.805,6.029,0.068,0.015,-0.041,100.0,104.0,97.0,13.4,1505.3,326.7,-0.7,1.9,2470.149,13.32,0.069,77.6
2019-06-07T07:44:36,42.805,6.029,0.022,-0.011,-0.015,100.0,104.0,96.0,13.4,1505.3,327.5,-0.8,1.9,2470.122,13.32,0.024,116.6
2019-06-07T07:47:37,42.805,6.029,0.051,-0.005,-0.013,99.0,104.0,96.0,13.4,1505.3,325.1,-0.8,1.9,2470.147,13.32,0.051,95.6
2019-06-07T07:50:38,42.805,6.029,0.054,-0.005,-0.031,100.0,105.0,96.0,13.4,1505.3,327.6,-0.7,1.8,2470.151,13.32,0.054,95.3
2019-06-07T07:53:39,42.805,6.029,0.029,0.0,-0.034,99.0,104.0,95.0,13.4,1505.3,325.5,-0.7,1.8,2470.122,13.32,0.028,90.0
2019-06-07T07:56:40,42.805,6.029,0.049,-0.008,-0.07,99.0,105.0,97.0,13.4,1505.3,325.5,-0.8,1.8,2470.168,13.32,0.049,99.3
2019-06-07T07:59:41,42.805,6.029,0.079,-0.005,-0.023,100.0,103.0,96.0,13.4,1505.3,326.0,-0.7,1.8,2470.114,13.32,0.079,93.6
2019-06-07T08:02:42,42.805,6.029,0.061,0.004,-0.035,99.0,102.0,96.0,13.4,1505.3,325.2,-0.8,1.8,2470.188,13.32,0.061,86.3
2019-06-07T08:05:43,42.805,6.029,0.049,0.003,-0.019,100.0,104.0,96.0,13.4,1505.3,327.5,-0.7,1.8,2470.163,13.32,0.049,86.5
2019-06-07T08:08:44,42.805,6.029,0.036,0.012,-0.005,100.0,102.0,96.0,13.4,1505.3,326.1,-0.7,1.8,2470.16,13.32,0.037,71.6
2019-06-07T08:11:45,42.805,6.029,0.034,-0.009,-0.037,98.0,103.0,96.0,13.3,1505.3,326.9,-0.7,1.9,2470.168,13.32,0.035,104.8
2019-06-07T08:14:46,42.805,6.029,0.047,-0.001,-0.011,99.0,102.0,96.0,13.4,1505.3,324.7,-0.8,1.8,2470.176,13.32,0.047,91.2
2019-06-07T08:17:47,42.805,6.029,0.065,-0.006,-0.021,98.0,103.0,97.0,13.4,1505.3,324.8,-0.7,1.8,2470.158,13.32,0.065,95.3
2019-06-07T08:20:48,42.805,6.029,0.037,0.016,-0.037,98.0,105.0,97.0,13.4,1505.3,322.5,-0.7,1.9,2470.161,13.32,0.04,66.6
2019-06-07T08:23:49,42.805,6.029,0.052,-0.008,-0.028,99.0,103.0,97.0,13.4,1505.3,324.7,-0.7,1.8,2470.152,13.32,0.052,98.7
2019-06-07T08:26:50,42.805,6.029,0.04,0.025,-0.018,100.0,103.0,96.0,13.4,1505.3,322.6,-0.8,1.8,2470.159,13.32,0.047,58.0
2019-06-07T08:29:51,42.805,6.029,0.048,-0.005,-0.042,100.0,105.0,96.0,13.4,1505.3,325.8,-0.8,1.8,2470.176,13.32,0.048,95.9
2019-06-07T08:32:52,42.805,6.029,0.029,0.016,-0.018,100.0,104.0,96.0,13.4,1505.3,325.9,-0.7,1.8,2470.141,13.32,0.033,61.1
2019-06-07T08:35:53,42.805,6.029,0.037,-0.005,-0.011,98.0,104.0,96.0,13.3,1505.3,326.4,-0.7,1.8,2470.195,13.32,0.037,97.7
2019-06-07T08:38:54,42.805,6.029,0.03,-0.003,-0.008,99.0,103.0,96.0,13.4,1505.3,325.6,-0.7,1.8,2470.165,13.32,0.03,95.7
2019-06-07T08:41:55,42.805,6.029,0.052,0.006,-0.026,98.0,105.0,96.0,13.4,1505.3,328.2,-0.8,1.9,2470.149,13.32,0.052,83.4
2019-06-07T08:44:56,42.805,6.029,0.035,0.021,-0.033,99.0,103.0,96.0,13.3,1505.3,323.8,-0.7,1.8,2470.192,13.32,0.04,59.0
2019-06-07T08:47:57,42.805,6.029,0.06,0.002,-0.007,99.0,102.0,97.0,13.3,1505.3,326.5,-0.8,1.8,2470.122,13.32,0.06,88.1
2019-06-07T08:50:58,42.805,6.029,0.049,0.03,-0.031,99.0,103.0,95.0,13.3,1505.3,323.1,-0.7,1.8,2470.19,13.32,0.057,58.5
2019-06-07T08:53:59,42.805,6.029,0.047,0.003,-0.008,98.0,103.0,96.0,13.4,1505.3,324.5,-0.8,1.9,2470.154,13.32,0.047,86.4
2019-06-07T08:57:00,42.805,6.029,0.032,0.02,-0.044,99.0,103.0,96.0,13.4,1505.3,325.9,-0.8,1.9,2470.148,13.32,0.037,58.0
2019-06-07T09:00:01,42.805,6.029,0.052,-0.002,-0.009,99.0,104.0,97.0,13.4,1505.3,327.8,-0.7,1.9,2470.173,13.32,0.052,92.2
2019-06-07T09:03:02,42.805,6.029,0.059,0.008,-0.034,99.0,102.0,97.0,13.4,1505.3,326.3,-0.8,1.8,2470.177,13.32,0.059,82.3
2019-06-07T09:06:03,42.805,6.029,0.043,0.01,-0.009,98.0,104.0,96.0,13.4,1505.3,326.5,-0.8,1.8,2470.151,13.32,0.044,76.9
2019-06-07T09:09:04,42.805,6.029,0.046,-0.011,-0.033,99.0,106.0,97.0,13.4,1505.3,327.3,-0.7,1.9,2470.174,13.32,0.047,103.4
2019-06-07T09:12:05,42.805,6.029,0.027,0.022,-0.019,98.0,101.0,97.0,13.4,1505.3,323.0,-0.7,1.8,2470.171,13.32,0.034,50.8
2019-06-07T09:15:06,42.805,6.029,0.047,-0.003,-0.007,100.0,104.0,97.0,13.3,1505.3,324.8,-0.7,1.9,2470.129,13.32,0.047,93.6
2019-06-07T09:18:07,42.805,6.029,0.031,-0.003,-0.044,100.0,104.0,97.0,13.3,1505.3,325.0,-0.8,1.9,2470.17,13.32,0.031,95.5
2019-06-07T09:21:08,42.805,6.029,0.047,0.0,-0.049,100.0,104.0,99.0,13.4,1505.3,326.3,-0.8,1.9,2470.15,13.32,0.047,90.0
2019-06-07T09:24:09,42.805,6.029,0.068,-0.002,-0.007,100.0,102.0,95.0,13.3,1505.3,324.5,-0.7,1.8,2470.204,13.32,0.068,91.7
2019-06-07T09:27:10,42.805,6.029,0.066,0.0,0.002,100.0,103.0,97.0,13.4,1505.3,323.3,-0.7,1.9,2470.186,13.32,0.065,90.0
2019-06-07T09:30:11,42.805,6.029,0.062,0.005,-0.02,100.0,103.0,95.0,13.4,1505.3,323.8,-0.8,1.8,2470.151,13.32,0.062,85.4
2019-06-07T09:33:12,42.805,6.029,0.025,0.015,-0.04,100.0,102.0,97.0,13.4,1505.3,322.9,-0.7,1.8,2470.177,13.32,0.029,59.0
2019-06-07T09:36:13,42.805,6.029,0.027,0.0,-0.06,98.0,105.0,96.0,13.4,1505.3,326.1,-0.8,1.9,2470.153,13.32,0.026,90.0
2019-06-07T09:39:14,42.805,6.029,0.056,0.017,-0.008,98.0,101.0,97.0,13.4,1505.3,325.9,-0.8,1.8,2470.163,13.32,0.058,73.1
2019-06-07T09:42:15,42.805,6.029,0.07,0.0,-0.026,100.0,102.0,97.0,13.3,1505.3,326.7,-0.8,1.8,2470.149,13.32,0.069,90.0
2019-06-07T09:45:16,42.805,6.029,0.046,0.027,-0.001,98.0,103.0,97.0,13.4,1505.3,322.8,-0.7,1.8,2470.215,13.32,0.053,59.6
2019-06-07T09:48:17,42.805,6.029,0.043,0.0,-0.047,99.0,101.0,96.0,13.4,1505.3,324.1,-0.7,1.8,2470.165,13.32,0.043,90.0